Tracking 23757 objects as of 26-Oct-2021
HD Live streaming from Space Station
objects crossing your sky now

IRIDIUM 33 DEB

Track IRIDIUM 33 DEB now!
10-day predictions


NORAD ID: 33864
Int'l Code: 1997-051AH
Perigee: 721.1 km
Apogee: 729.1 km
Inclination: 86.3 °
Period: 99.1 minutes
Semi major axis: 7096 km
RCS: 0.049 m2 (small)
Launch date: September 14, 1997
Source: United States (US)
Launch site: TYURATAM MISSILE AND SPACE COMPLEX (TTMTR)

Note: This is SATELLITE DEBRIS
aabbcc
Your satellite tracking list
Your tracking list is empty




NASA's NSSDC Master Catalog

Two Line Element Set (TLE):
1 33864U 97051AH  21298.94588331  .00002454  00000-0  59819-3 0  9999
2 33864  86.2759 248.5100 0005636 335.9305  96.0289 14.52352901669288
Source of the keplerian elements: AFSPC